COSMOS 2449 (GLONASS)

Satellite information

Favourite Embed

Satellite Type and Status

PAYLOADIN ORBIT

Key statistics

Satellite COSMOS 2449 (GLONASS) at a glance.

Uptime

6198

Days in orbit

Revolutions

≈ 2.1

Per day

Orbit

MEO

Medium Earth Orbit

Inclination

64.7

Latest

Satellite identification and parameters

Extended collection of information and parameters for COSMOS 2449 (GLONASS).

Object identification

Identified? True

Debris? False

Object name: COSMOS 2449 (GLONASS)

International designator: 2008-067B

Object number (NORAD): 33467

Object ID (CCSDS): 33467

Country: COMMONWEALTH OF INDEPENDENT STATES (CIS)

Current information (Y/N): Y

RCS size: LARGE

Orbital parameters

Period: 675.75 minutes

Inclination: 64.6945 deg

SMA: 25508.457 km

Apoapsis: 19215.763 km

Periapsis: 19044.882 km

RAAN: 75.7294 deg

Eccentricy: 0.0033495

Argument of periapsis: 236.3895 deg

Mean anomaly: 123.3123 deg

Mean motion: 2.13096576 rev/day

Mean motion (dot): -0.00000035 rev/day2

B* drag term: 0.0 1/REarth

Two-line elements (TLE)

Creation date: Dec. 12, 2025, 7:06 a.m.

Reference frame: TEME

Reference center: EARTH

Epoch: Dec. 11, 2025, 4:14 a.m. UTC

TLE line 0: 0 COSMOS 2449 (GLONASS)

TLE line 1: 1 33467U 08067B 25345.17669145 -.00000035 00000-0 00000+0 0 9990

TLE line 2: 2 33467 64.6945 75.7294 0033495 236.3895 123.3123 2.13096576131956

Live tracking on map

Real-time ground track for satellite COSMOS 2449 (GLONASS).

In-orbit conjunctions

There are no conjunctions computed for COSMOS 2449 (GLONASS), at the moment. Check back to stay up to date, as we update our databases every day.

Go to all conjunctions

Associated space launch

GLONASS navigation satellites

COSMOS 2449 (GLONASS) was lifted into orbit during the mission ‘Proton-M | Uragan-M 18 to 20’, on board a Proton-M space rocket.

The launch took place on Dec. 25, 2008, 10:43 a.m. from 81/24 (81P).

For more information about the launch, click the button.

Launch to space Proton-M | Uragan-M 18 to 20
Proton-M | Uragan-M 18 to 20

Agency: N/A

Status: Launch Successful

Launch date: Dec. 25, 2008, 10:43 a.m. UTC

Rocket: Proton-M

Launch pad: 81/24 (81P)

Location: Baikonur Cosmodrome, Republic of Kazakhstan

...

Latest news about this satellite

There are no fresh news available about this satellite. Check back as we update our databases every day.


Newsletter sign-up

Weekly statistics, charts and insights to help you stay on top of the space industry.